Weather History for VIJP - August, 2014

Change the Weather History Date:

Friday, August 29, 2014

  Actual Average Record
Temperature  
Mean Temperature 87 °F -  
Max Temperature 96 °F - - ()
Min Temperature 78 °F - - ()
Cooling Degree Days 22    
Growing Degree Days 37 (Base 50)    
Moisture  
Dew Point 73 °F    
Average Humidity 59    
Maximum Humidity 70    
Minimum Humidity 39    
Precipitation  
Precipitation 0.00 in - - ()
Sea Level Pressure  
Sea Level Pressure 29.68 in    
Wind  
Wind Speed 5 mph ()    
Max Wind Speed 10 mph    
Max Gust Speed -    
Visibility 2.1 miles    
Events Thunderstorm    
T = Trace of Precipitation, MM = Missing Value Source: Averaged Metar Reports

Daily Weather History Graph

Daily Weather History Graph

Search for Another Location

Airport or City:

Trip Planner

Search our weather history database for the weather conditions in past years. The results will help you decide how hot, cold, wet, or windy it might be!

Date:

Astronomy

Aug. 29, 2014 Rise Set
Actual Time 6:04 AM IST 6:50 PM IST
Civil Twilight 5:41 AM IST 7:14 PM IST
Nautical Twilight 5:13 AM IST 7:41 PM IST
Astronomical Twilight 4:44 AM IST 8:10 PM IST
Moon 9:05 AM IST (8/29) 8:56 PM IST (8/29)
Length of Visible Light 13h 33m
Length of Day
12h 45m
Waxing Crescent, 12% of the Moon is Illuminated
Aug 29
Waxing Crescent
Sep 2
First Quarter
Sep 9
Full
Sep 16
Last Quarter
Sep 24
New

Hourly Weather History & Observations

Time (IST) Temp. Heat Index Dew Point Humidity Pressure Visibility Wind Dir Wind Speed Gust Speed Precip Events Conditions
12:00 AM 84.2 °F 89.6 °F 71.6 °F 66% 29.74 in 2.2 mi Variable 1.2 mph - N/A   Haze
2:30 AM 83 °F - 73 °F 65% 29.64 in 1 mi NNE 4.6 mph - -   Haze
5:00 AM 80.6 °F 83.9 °F 69.8 °F 70% 29.71 in 2.2 mi Variable 2.3 mph - N/A   Haze
5:30 AM 80 °F - 72 °F 69% 29.64 in 1 mi Calm Calm - -   Haze
6:00 AM 80.6 °F 83.9 °F 69.8 °F 70% 29.71 in 2.2 mi ENE 3.5 mph - N/A   Haze
7:00 AM 82.4 °F 87.2 °F 71.6 °F 70% 29.74 in 2.2 mi Variable 2.3 mph - N/A   Haze
8:00 AM 84.2 °F 89.6 °F 71.6 °F 66% 29.74 in 2.2 mi East 8.1 mph - N/A   Haze
8:30 AM 85 °F - 72 °F 56% 29.68 in 2 mi ENE 3.5 mph - -   Haze
9:00 AM 86.0 °F 93.4 °F 73.4 °F 66% 29.77 in 2.5 mi East 9.2 mph - N/A   Haze
10:00 AM 87.8 °F 97.6 °F 75.2 °F 66% 29.77 in 2.5 mi East 9.2 mph - N/A   Haze
11:00 AM 89.6 °F 99.8 °F 75.2 °F 62% 29.74 in 2.5 mi ENE 5.8 mph - N/A   Haze
11:30 AM 91 °F - 75 °F 51% 29.64 in 2 mi ENE 6.9 mph - -   Haze
12:00 PM 93.2 °F 102.4 °F 73.4 °F 52% 29.71 in 2.5 mi East 5.8 mph - N/A   Haze
1:00 PM 93.2 °F 102.4 °F 73.4 °F 52% 29.71 in 2.5 mi ENE 8.1 mph - N/A   Haze
2:00 PM 93.2 °F 100.5 °F 71.6 °F 49% 29.68 in 2.5 mi ENE 8.1 mph - N/A   Haze
2:30 PM 94 °F - 72 °F 39% 29.58 in 2 mi NE 8.1 mph - -   Haze
3:00 PM 93.2 °F 98.8 °F 69.8 °F 46% 29.65 in 2.5 mi ENE 9.2 mph - N/A   Haze
4:00 PM 95.0 °F 103.2 °F 71.6 °F 47% 29.62 in 2.5 mi East 10.4 mph - N/A   Haze
5:00 PM 95.0 °F 103.2 °F 71.6 °F 47% 29.62 in 2.5 mi NE 8.1 mph - N/A   Haze
5:30 PM 93 °F - 73 °F 44% 29.53 in 2 mi NE 9.2 mph - -   Haze
6:00 PM 91.4 °F 98.4 °F 71.6 °F 52% 29.62 in 2.5 mi NE 9.2 mph - N/A   Haze
7:00 PM 91.4 °F 96.8 °F 69.8 °F 49% 29.65 in 2.5 mi NNE 8.1 mph - N/A   Haze
8:30 PM 86 °F - 76 °F 64% 29.62 in 1 mi East 4.6 mph - - Thunderstorm Thunderstorm
9:00 PM 86.0 °F 95.1 °F 75.2 °F 70% 29.71 in 1.9 mi East 6.9 mph - N/A Thunderstorm Unknown
10:00 PM 86.0 °F 95.1 °F 75.2 °F 70% 29.71 in 1.9 mi East 6.9 mph - N/A   Haze
11:00 PM 86.0 °F 95.1 °F 75.2 °F 70% 29.71 in 1.9 mi SE 3.5 mph - N/A   Haze
11:30 PM 85 °F - 74 °F 61% 29.63 in 1 mi East 3.5 mph - -   Haze